Puy-St-Vincent, France 16 day weather forecast

Slopes altitude range 1250 m - 2700m

Number of lifts: 12 Pistes: 75km

In some cases the lift and piste totals shown are for the ski domain (e.g. Three Valleys) rather than individual resort (e.g. Courchevel)

Overview

The 16 day weather forecast is fully updated 4 times every day.

    • Sat 20 APR 2019
    • Sat 20
    • -2C 4C
    • Sun 21 APR 2019
    • Sun 21
    • 0C 3C
    • Mon 22 APR 2019
    • Mon 22
    • -1C 5C
    • Tue 23 APR 2019
    • Tue 23
    • 0C 4C
    • Wed 24 APR 2019
    • Wed 24
    • 1C 5C
    • Thu 25 APR 2019
    • Thu 25
    • -1C 4C
    • Fri 26 APR 2019
    • Fri 26
    • -6C -4C
    • Sat 27 APR 2019
    • Sat 27
    • -5C -1C
    • Sun 28 APR 2019
    • Sun 28
    • 4C 13C
    • Mon 29 APR 2019
    • Mon 29
    • 5C 13C
    • Tue 30 APR 2019
    • Tue 30
    • 3C 10C
    • Wed 01 MAY 2019
    • Wed 01
    • 4C 7C
    • Thu 02 MAY 2019
    • Thu 02
    • 3C 8C
    • Fri 03 MAY 2019
    • Fri 03
    • 4C 12C
    • Sat 04 MAY 2019
    • Sat 04
    • 4C 14C
    • Sun 05 MAY 2019
    • Sun 05
    • 6C 14C

Date:

Time Type 0°C level Temp Chill Snow Cloud Speed Gust Dir Press
3:00 1698m -4°C -4_6 0cm 0% 6mph 6mph 1028mB
6:00 1896m -4°C -4_6 0cm 1% 6mph 7mph 1028mB
9:00 2419m -2°C -2_8 0cm 5% 8mph 9mph 1026mB
12:00 2578m 4°C 4_8 0cm 17% 8mph 9mph 1025mB
15:00 2627m 5°C 5_8 0cm 42% 8mph 9mph 1023mB
18:00 2321m 5°C 5_8 0cm 48% 8mph 9mph 1023mB
21:00 1956m -2°C -2_7 0cm 97% 7mph 8mph 1025mB
0:00 1974m -2°C -2_7 0cm 99% 7mph 8mph 1024mB
3:00 1979m -2°C -2_7 0cm 97% 7mph 8mph 1023mB
6:00 2198m -2°C -2_8 0cm 98% 8mph 10mph 1021mB
9:00 2438m 0°C 0_9 1cm 98% 9mph 11mph 1020mB
12:00 2477m 3°C 3_9 1cm 98% 9mph 10mph 1018mB
15:00 2515m 4°C 4_9 1cm 87% 9mph 10mph 1016mB
18:00 2341m 4°C 4_7 1cm 92% 7mph 9mph 1016mB
21:00 1939m -2°C -2_8 0cm 73% 8mph 9mph 1017mB
0:00 1925m -2°C -2_8 0cm 72% 8mph 9mph 1016mB
3:00 2026m -2°C -2_8 1cm 91% 8mph 10mph 1013mB
6:00 2141m -2°C -2_10 1cm 93% 10mph 12mph 1011mB
9:00 2389m -1°C -1_11 0cm 86% 11mph 13mph 1008mB
12:00 2556m 5°C 5_11 0cm 67% 11mph 13mph 1006mB
15:00 2420m 4°C 4_10 1cm 99% 10mph 12mph 1003mB
18:00 2255m 4°C 4_9 1cm 100% 9mph 12mph 1003mB
21:00 2152m -1°C -1_9 1cm 100% 9mph 11mph 1004mB
0:00 2058m -1°C -1_9 1cm 100% 9mph 12mph 1002mB
3:00 1991m -2°C -2_7 1cm 96% 7mph 9mph 1001mB
6:00 2156m -2°C -2_6 1cm 94% 6mph 7mph 1001mB
9:00 2464m 0°C 0_8 1cm 93% 8mph 9mph 1001mB
12:00 2543m 4°C 4_7 1cm 95% 7mph 8mph 1000mB
15:00 2631m 4°C 4_7 1cm 98% 7mph 8mph 1000mB
18:00 2632m 4°C 4_7 1cm 96% 7mph 9mph 1002mB
21:00 2492m 0°C 0_8 0cm 64% 8mph 9mph 1005mB
0:00 2496m 0°C 0_9 0cm 72% 9mph 10mph 1006mB
3:00 2248m -1°C -1_10 0cm 72% 10mph 12mph 1006mB
6:00 2429m -2°C -2_11 0cm 68% 11mph 16mph 1007mB
9:00 2620m 1°C 1_17 1cm 77% 17mph 22mph 1008mB
12:00 2541m 5°C 5_14 2cm 84% 14mph 17mph 1010mB
15:00 2472m 3°C 3_14 3cm 98% 14mph 18mph 1010mB
18:00 2399m 3°C 3_12 3cm 99% 12mph 16mph 1011mB
21:00 2301m 0°C 0_10 4cm 100% 10mph 14mph 1013mB
0:00 2030m -1°C -1_10 2cm 99% 10mph 13mph 1013mB
3:00 1942m -2°C -2_10 0cm 87% 10mph 12mph 1013mB
6:00 2120m -2°C -2_12 0cm 78% 12mph 15mph 1013mB
9:00 2388m -1°C -1_14 0cm 62% 14mph 17mph 1012mB
12:00 2549m 4°C 4_14 0cm 54% 14mph 17mph 1011mB
15:00 2590m 4°C 4_13 1cm 54% 13mph 17mph 1010mB
18:00 2434m 4°C 4_14 1cm 64% 14mph 20mph 1011mB
21:00 2221m 0°C 0_9 2cm 93% 9mph 15mph 1012mB
0:00 2052m -1°C -1_5 4cm 97% 5mph 5mph 1012mB
3:00 1538m -5°C -5_14 3cm 100% 14mph 18mph 1012mB
6:00 1387m -6°C -6_15 3cm 100% 15mph 22mph 1013mB
9:00 1464m -6°C -6_19 2cm 99% 19mph 26mph 1014mB
12:00 1680m -4°C -4_20 1cm 99% 20mph 26mph 1014mB
15:00 1750m -3°C -3_20 1cm 85% 20mph 27mph 1015mB
18:00 1558m -3°C -3_19 1cm 87% 19mph 27mph 1017mB
21:00 1497m -5°C -5_20 1cm 93% 20mph 28mph 1019mB
0:00 1534m -5°C -5_19 1cm 87% 19mph 26mph 1020mB
3:00 1456m -5°C -5_17 1cm 89% 17mph 23mph 1020mB
6:00 1458m -6°C -6_16 1cm 93% 16mph 21mph 1021mB
9:00 1824m -5°C -5_14 1cm 89% 14mph 17mph 1020mB
12:00 2013m -1°C -1_12 0cm 91% 12mph 13mph 1020mB
15:00 2776m 6°C 6_7 0cm 76% 7mph 10mph 1018mB
18:00 2712m 6°C 6_7 0cm 88% 7mph 9mph 1019mB
21:00 2700m 0°C 0_6 0cm 100% 6mph 7mph 1022mB
0:00 2919m 0°C 0_4 0cm 100% 4mph 5mph 1022mB
3:00 3068m 1°C 1_5 0cm 100% 5mph 6mph 1021mB
6:00 3153m 1°C 1_5 0cm 100% 5mph 6mph 1020mB
9:00 3113m 4°C 4_1 0cm 96% 1mph 2mph 1019mB
12:00 2984m 13°C 13_1 0cm 92% 1mph 3mph 1018mB
15:00 2979m 13°C 13_0 0cm 90% 0mph 2mph 1016mB
18:00 3052m 13°C 13_1 0cm 95% 1mph 1mph 1016mB
21:00 2992m 4°C 4_3 0cm 100% 3mph 3mph 1018mB
0:00 2824m 3°C 3_1 0cm 100% 1mph 1mph 1018mB
3:00 2740m 2°C 2_3 0cm 14% 3mph 4mph 1018mB
6:00 2838m 2°C 2_3 0cm 7% 3mph 3mph 1017mB
9:00 2835m 5°C 5_2 0cm 15% 2mph 2mph 1016mB
12:00 2925m 13°C 13_3 0cm 21% 3mph 3mph 1014mB
15:00 2969m 12°C 12_2 0cm 100% 2mph 2mph 1012mB
18:00 2969m 12°C 12_2 0cm 79% 2mph 3mph 1013mB
21:00 2966m 4°C 4_5 0cm 5% 5mph 5mph 1014mB
0:00 2848m 3°C 3_4 0cm 2% 4mph 5mph 1014mB
Afternoon 0.0208333mm 0.125 2864m 10°C 10_5 0cm 22% 5mph 6mph 1012mB
Morning 0.140625mm 0.5 2897m 5°C 5_3 0cm 89% 3mph 5mph 1012mB
Afternoon 0.0364583mm 0.0625 2630m 7°C 7_8 0cm 95% 8mph 10mph 1010mB
Morning 0.661458mm 0.1875 2691m 4°C 4_5 0cm 93% 5mph 8mph 1010mB
Afternoon 0.09375mm 0.1875 2940m 8°C 8_6 0cm 92% 6mph 8mph 1010mB
Morning 0.223958mm 1.0625 3055m 5°C 5_2 0cm 86% 2mph 3mph 1012mB
Afternoon 0.0989583mm 1.1875 3092m 12°C 12_4 0cm 33% 4mph 6mph 1011mB
Morning 0.979167mm 11.6875 3155m 6°C 6_4 0cm 92% 4mph 5mph 1012mB
Afternoon 0.244792mm 2.9375 3247m 14°C 14_3 0cm 45% 3mph 4mph 1011mB
Morning 0.401042mm 4.8125 3363m 7°C 7_4 0cm 55% 4mph 5mph 1013mB
Afternoon 0.255208mm 2.875 3236m 14°C 14_4 0cm 76% 4mph 6mph 1011mB
Morning 0.859375mm 9.375 3196m 7°C 7_6 0cm 67% 6mph 6mph 1013mB

16 day outlook at a glance

Forecast issued: 20/04/2019 06:17:34

Chat

Your comments and questions. In a resort? Let us know what it's like!


Characters left 250

For terms and conditions see Readers Comments on the Cookie and privacy policy page.